GFSMA_sfc_dewp_000.txt.gz
Dewpoint
60 61 58 58 58 60 60 59 58 59 61 61 61 60 60 59 57 58 57 56 60 60 63 63 63 64 63 63 61 60 58 58 58 58 58 57 59 59 59 59 59 58 58
59 60 59 58 60 61 61 60 60 59 60 60 61 60 60 59 59 59 59 56 55 57 59 62 63 63 63 62 61 60 60 58 57 57 57 58 58 58 58 59 58 58 58
56 56 54 53 54 58 59 61 61 61 61 61 59 57 58 59 60 59 58 57 55 54 56 60 63 63 64 63 61 60 60 60 59 58 58 57 58 58 58 58 58 58 58
49 49 50 51 52 53 54 54 54 55 58 59 59 58 57 56 58 59 58 57 56 51 50 56 60 63 63 63 62 60 59 61 60 59 59 58 58 58 58 58 58 58 58
43 41 42 45 45 43 46 46 47 51 50 52 53 57 58 57 58 56 57 56 56 55 50 48 56 58 61 63 63 61 60 59 61 60 60 59 59 59 59 58 59 59 58
39 37 38 41 39 36 36 37 38 38 42 48 46 51 58 59 59 58 57 57 57 56 55 54 46 53 60 62 62 63 61 59 59 59 60 60 59 59 59 59 59 59 59
35 38 34 34 37 36 38 37 35 35 34 40 38 46 50 58 58 57 56 57 57 55 55 54 51 46 54 61 61 62 61 59 58 59 60 60 59 59 59 59 59 59 59
36 33 34 33 36 33 36 37 37 33 31 35 35 35 44 50 55 55 56 57 57 56 55 54 53 48 48 55 59 60 61 61 60 59 60 59 59 59 59 59 59 59 59
38 39 37 37 36 36 34 36 36 35 30 31 34 36 32 40 44 48 54 56 57 56 55 54 54 50 47 50 56 58 57 58 60 60 59 59 59 59 59 59 59 58 59
38 39 39 40 41 38 37 35 31 35 35 31 29 27 39 34 30 32 43 48 55 55 56 56 54 53 50 49 52 53 54 55 57 59 59 59 59 59 59 58 58 58 59
36 37 38 40 41 40 39 40 39 37 34 33 31 30 30 30 32 34 29 34 46 50 54 56 55 54 55 52 51 53 53 53 54 57 58 59 59 59 59 58 58 57 58
30 33 33 36 37 38 38 38 39 39 38 36 33 32 29 27 25 26 32 33 32 37 46 52 54 53 54 55 52 50 51 52 52 55 57 58 58 59 59 59 58 57 57
27 29 30 31 30 31 32 33 34 35 36 34 35 32 30 29 29 27 25 26 26 32 40 48 52 54 53 53 53 50 51 50 51 52 55 56 57 57 58 59 58 56 57
26 28 29 29 29 30 30 31 30 30 32 36 36 36 32 28 27 27 25 25 25 26 31 38 48 52 53 53 52 50 51 48 49 50 51 53 55 56 56 56 56 54 55
23 26 28 29 30 30 31 32 30 31 33 36 38 38 36 35 32 30 29 28 26 23 22 26 39 48 50 52 51 52 52 48 48 48 48 50 52 54 54 55 54 54 55
27 27 27 28 28 29 29 30 30 31 31 34 33 34 35 35 32 31 29 30 30 28 25 24 24 43 48 49 50 51 51 50 46 46 46 47 49 50 52 53 53 53 54
26 26 26 27 27 27 28 28 29 30 30 30 32 33 34 34 34 32 31 29 28 29 28 30 28 34 41 45 47 48 50 50 50 44 44 46 47 48 50 50 50 50 50
27 27 26 25 25 24 25 26 27 27 28 29 29 30 30 27 33 34 32 30 29 29 27 30 30 32 38 41 45 45 47 49 50 46 45 45 47 48 47 46 46 45 45
26 25 23 23 23 23 23 25 26 27 28 28 29 29 29 29 31 32 31 30 29 25 29 30 30 30 34 41 44 45 44 45 47 47 44 45 46 46 45 44 43 42 42
23 21 22 22 23 23 23 24 25 26 27 27 29 31 31 31 32 31 29 30 28 30 30 29 28 28 31 38 43 41 39 41 40 43 45 45 44 43 43 42 41 41 41
20 20 21 21 22 23 21 25 24 25 25 26 28 28 29 30 31 32 31 32 31 32 30 29 31 32 32 35 39 40 40 37 37 37 38 40 44 43 42 41 41 41 41
18 19 20 21 23 20 25 26 25 25 25 26 28 28 28 30 30 30 30 32 34 34 32 32 30 30 30 32 37 40 36 34 34 35 34 33 37 40 40 41 40 40 39
18 18 20 23 24 24 26 25 25 26 28 28 28 28 27 25 29 28 30 30 30 31 30 32 32 30 29 31 34 39 37 37 35 34 35 30 32 32 36 38 38 38 38
18 19 23 23 23 22 25 25 25 27 29 29 28 28 28 29 29 28 29 30 31 32 32 29 30 32 31 31 32 39 38 36 33 33 32 28 30 28 32 33 37 37 36
19 22 23 23 24 26 26 25 26 29 30 29 28 29 28 29 30 30 29 30 29 32 34 33 32 31 32 36 37 39 36 34 30 30 29 28 27 28 30 32 33 36 36
21 24 24 25 25 28 26 26 28 30 29 28 29 30 28 29 29 29 30 30 31 29 31 34 35 34 34 34 35 39 38 36 30 28 30 24 26 25 22 28 32 33 34

GFSMA_sfc_dewp_003.txt.gz
Dewpoint
57 58 57 56 56 57 59 59 58 57 59 59 60 59 59 60 60 59 58 57 58 58 58 60 63 63 64 64 63 62 60 58 58 58 60 61 60 61 61 60 60 59 59
57 56 55 55 54 58 60 61 61 60 60 60 59 60 61 60 60 59 57 58 58 58 57 56 61 63 63 64 63 62 61 60 59 58 60 60 60 60 60 60 59 59 59
52 50 48 48 50 54 56 56 55 58 60 60 60 60 59 60 60 60 58 58 58 56 57 57 57 62 64 63 64 62 62 61 60 59 59 60 59 59 59 59 59 59 59
46 47 46 46 46 47 48 49 51 53 55 57 56 58 58 58 57 57 59 59 58 56 55 56 57 57 62 62 63 62 61 61 60 60 60 60 59 59 59 59 58 58 58
41 40 41 42 42 39 39 37 37 43 44 47 50 50 52 58 58 57 57 59 59 58 55 54 56 57 58 62 62 64 61 61 61 60 60 59 59 59 59 59 58 58 58
37 37 37 40 39 36 37 38 38 36 36 39 39 38 46 56 59 58 58 57 57 58 57 56 52 53 56 60 62 63 64 61 60 60 60 60 59 59 58 58 58 58 58
36 38 34 35 37 36 38 40 38 38 35 35 37 39 37 44 52 57 59 58 58 57 57 57 58 54 50 57 60 62 63 63 61 61 61 60 59 58 58 58 58 59 59
37 36 36 35 36 35 39 39 39 36 36 37 33 33 33 36 41 48 53 57 58 57 56 56 57 56 53 51 56 60 62 64 64 62 61 60 60 59 58 59 59 59 59
39 39 38 37 38 38 36 39 38 37 33 37 40 32 29 31 37 34 44 48 55 58 58 56 56 56 55 52 53 58 58 59 62 62 61 60 60 59 59 59 59 59 59
37 38 38 37 38 38 39 40 35 40 40 35 37 33 40 35 30 31 33 35 47 48 54 57 55 55 55 56 54 52 54 55 58 60 60 59 61 60 59 59 59 59 59
36 35 36 37 38 37 39 42 43 43 39 39 37 36 38 36 37 34 30 31 34 43 53 52 53 57 55 54 55 53 52 53 55 57 59 59 60 60 60 59 59 59 59
36 35 31 35 36 36 36 39 42 41 41 40 39 38 37 35 32 33 32 33 31 35 37 45 50 54 56 56 54 52 51 52 53 55 57 58 59 59 60 59 59 59 59
29 31 33 36 32 31 31 33 36 37 37 36 38 36 35 34 34 33 32 31 30 30 32 36 46 49 53 55 56 53 53 50 51 54 55 56 57 58 58 59 59 59 58
28 29 30 29 29 29 29 32 32 34 35 35 37 36 33 34 34 33 31 31 30 30 31 34 35 48 51 54 54 51 54 50 49 51 53 54 55 56 56 57 57 56 56
25 27 28 29 28 29 28 30 32 33 35 36 38 39 36 35 37 37 37 34 31 28 27 30 30 37 48 50 51 53 53 52 49 48 50 51 53 54 55 55 55 54 54
28 27 27 26 26 27 28 29 31 31 34 34 33 35 35 34 34 36 35 36 34 31 29 29 28 33 42 48 50 51 52 50 49 47 46 48 50 53 53 54 54 53 53
26 26 25 25 26 26 27 28 29 30 30 31 33 33 34 34 33 33 35 36 35 33 30 31 31 32 36 45 47 48 50 50 51 46 45 46 47 49 51 51 52 53 52
27 26 26 25 24 24 24 24 25 25 26 27 29 30 31 26 32 33 33 35 35 34 31 30 31 30 34 37 39 44 46 48 49 48 45 45 45 46 47 48 49 49 49
25 25 24 24 23 23 23 24 23 25 26 27 28 29 30 30 31 31 32 32 34 31 32 30 29 30 31 33 37 41 44 46 46 45 45 43 44 45 46 47 47 48 47
25 24 23 23 23 22 21 22 21 24 26 26 29 30 28 29 30 31 31 33 31 32 32 31 30 30 31 32 34 39 42 43 43 43 44 43 43 45 45 46 46 47 46
24 22 21 22 22 21 18 22 23 24 26 26 27 26 28 30 30 30 29 30 32 33 32 31 31 31 31 30 32 38 40 40 39 40 40 38 41 44 46 46 47 46 45
20 21 21 21 22 17 25 29 28 25 25 25 27 26 26 28 28 30 30 30 30 31 32 34 33 32 32 32 32 34 39 37 35 37 37 35 38 38 43 47 45 43 43
21 21 21 21 21 23 27 28 28 26 27 27 27 28 27 24 28 28 29 30 30 30 29 29 30 33 33 33 33 33 38 37 36 36 35 32 34 33 33 38 42 41 41
20 20 21 22 23 23 27 28 28 28 28 28 28 28 28 29 29 29 30 31 30 31 31 28 28 30 32 34 36 35 38 38 34 35 35 30 30 31 33 34 39 41 40
20 20 21 24 25 26 27 28 27 30 30 29 28 28 29 30 30 30 31 31 31 32 32 32 34 32 30 30 32 35 37 35 31 31 32 28 28 28 31 31 32 37 39
19 24 24 25 26 28 28 29 30 31 31 30 30 30 29 28 30 31 31 30 30 30 29 30 34 34 35 32 30 33 36 36 32 29 31 26 28 27 25 30 32 32 32

GFSMA_sfc_dewp_006.txt.gz
Dewpoint
58 58 57 57 57 57 57 58 57 56 56 57 58 58 57 57 59 60 59 59 59 59 61 62 63 64 65 66 65 64 63 61 60 60 62 63 63 62 62 62 61 61 61
57 57 55 55 54 55 56 58 58 58 58 59 58 59 58 57 58 59 59 58 58 58 59 59 61 63 64 66 65 64 63 62 61 59 61 62 62 62 62 61 61 60 60
52 51 51 50 51 52 53 54 54 55 56 58 59 59 59 59 59 60 60 59 58 58 58 58 60 60 63 65 65 64 63 62 61 61 61 61 61 61 61 61 60 60 59
49 49 48 49 48 49 47 46 46 47 51 53 55 55 55 56 58 58 57 59 58 57 58 58 58 59 60 62 64 64 63 63 62 61 61 60 59 60 61 59 60 56 56
45 45 46 48 46 43 43 41 42 41 40 41 41 46 46 49 51 56 57 57 58 58 57 58 57 57 58 59 63 64 64 63 62 62 61 60 60 59 59 59 55 55 58
43 42 44 44 43 42 42 43 42 42 41 41 35 36 40 42 50 55 56 57 57 58 58 57 56 54 55 57 59 62 63 64 62 61 62 61 61 60 59 56 55 56 58
43 43 43 41 43 42 42 41 42 41 41 42 40 37 38 37 39 41 53 57 58 58 57 57 56 56 51 56 57 60 60 62 65 63 62 61 60 59 58 57 58 58 58
43 41 43 40 41 41 41 43 42 40 41 41 40 37 34 33 38 38 40 50 53 56 57 57 56 56 56 55 52 58 60 62 64 65 62 61 59 59 58 58 58 58 58
45 44 43 43 42 42 42 42 41 40 39 40 39 38 34 32 34 34 37 36 41 48 54 56 57 56 56 56 55 55 56 57 62 64 64 61 60 60 59 58 58 58 59
44 43 43 43 43 42 41 42 40 43 41 38 40 38 39 37 34 32 35 36 36 36 46 53 55 56 56 55 55 53 51 53 57 61 63 63 61 60 59 59 58 59 59
40 39 40 42 42 42 42 41 41 41 41 40 39 39 38 37 37 35 32 32 35 35 39 50 51 52 52 55 55 54 51 50 53 58 59 62 62 61 60 59 58 59 59
40 41 38 39 39 39 38 38 38 37 38 38 37 36 35 34 33 32 31 31 31 32 34 36 47 49 51 53 54 53 51 50 51 54 58 60 61 61 61 60 59 59 59
35 36 36 36 36 35 36 35 35 35 35 34 33 32 32 32 33 31 29 27 27 28 31 34 35 42 49 51 52 50 51 49 50 52 54 57 58 58 59 60 59 59 59
34 34 33 34 34 34 35 35 34 33 34 34 32 33 33 32 32 30 29 29 28 28 30 31 34 35 47 48 50 51 54 50 48 49 51 53 55 56 56 57 58 58 58
30 34 34 34 34 35 34 34 33 32 32 33 33 34 33 33 35 34 32 31 29 28 29 31 31 32 35 48 49 50 51 50 49 48 48 50 52 54 55 55 56 56 56
32 33 33 33 32 32 32 32 31 31 32 32 31 32 32 32 32 32 31 32 33 32 30 30 31 32 32 36 47 48 49 49 48 47 47 47 49 51 53 54 54 54 55
32 32 31 30 29 28 29 29 29 29 29 28 29 29 29 30 30 30 31 31 31 31 31 31 33 33 32 33 36 46 47 47 49 46 45 46 46 47 48 52 52 52 53
32 32 30 28 27 27 27 27 27 26 26 26 26 27 27 25 27 29 29 29 30 30 31 30 32 33 31 30 30 35 44 46 45 46 45 45 45 45 46 46 49 50 50
31 29 28 28 27 27 26 26 25 25 25 25 25 26 26 27 27 28 28 29 29 28 30 31 31 32 31 32 31 31 33 42 45 45 43 43 44 44 45 45 46 48 49
30 29 28 27 27 25 23 23 22 23 24 24 27 28 28 28 28 28 27 28 28 29 30 32 31 31 31 30 31 30 30 38 39 43 43 43 43 44 44 44 44 46 49
28 28 25 25 26 24 21 23 24 25 25 25 26 26 26 27 29 29 27 27 27 27 29 31 31 32 30 30 29 31 31 33 37 37 39 40 40 43 44 44 45 45 47
27 25 25 25 25 21 27 30 30 26 25 25 26 26 25 27 27 28 28 29 28 27 27 29 30 32 32 32 31 31 31 31 34 34 36 37 35 38 39 44 44 44 45
26 25 24 24 24 24 29 30 29 26 26 25 25 25 25 24 27 26 28 29 29 30 28 27 24 25 28 30 33 32 31 32 34 34 35 33 33 34 34 38 41 42 44
24 23 24 24 24 24 28 28 28 26 26 27 27 26 26 26 27 27 27 28 30 30 29 28 28 27 26 27 29 32 34 33 34 33 31 32 30 30 33 34 40 41 43
22 23 23 25 24 25 28 28 27 27 29 28 28 28 27 27 28 29 29 30 29 29 30 33 32 31 30 30 29 29 30 32 32 32 32 29 28 28 30 31 33 38 40
20 25 24 26 27 25 27 29 29 30 30 29 28 30 30 31 31 30 29 29 28 28 29 28 28 30 32 32 32 32 28 28 31 30 32 26 27 28 26 30 31 33 34

GFSMA_sfc_dewp_009.txt.gz
Dewpoint
57 56 56 54 56 56 56 55 55 54 54 55 56 56 56 57 57 58 59 60 60 60 61 62 62 63 65 66 66 66 66 65 64 64 64 64 64 64 64 63 63 62 62
54 54 54 54 53 54 54 54 53 55 55 57 57 57 57 57 56 57 58 59 60 60 61 60 61 62 63 66 66 65 65 65 65 64 64 64 63 63 63 63 62 61 61
48 48 48 49 48 51 52 51 51 51 52 54 55 57 58 59 59 58 58 59 60 60 60 60 60 60 61 62 65 65 64 64 64 63 63 63 63 62 62 62 62 61 61
48 47 47 46 43 45 45 39 41 39 42 41 44 49 54 53 53 53 58 59 60 60 59 59 60 60 60 59 61 64 65 65 64 63 62 62 62 62 61 61 61 61 60
44 41 45 44 41 43 41 40 39 40 38 38 37 36 37 38 42 43 49 54 58 59 59 59 59 59 59 60 59 60 61 65 64 63 62 61 62 62 61 61 61 59 57
42 39 43 43 41 40 41 40 38 40 40 39 39 37 37 40 40 42 48 49 53 57 58 58 58 57 58 60 60 59 60 62 65 63 63 62 61 61 60 60 60 59 56
40 38 39 41 42 40 40 39 40 38 37 39 38 38 37 37 36 37 43 46 51 46 57 58 58 57 55 58 58 58 58 58 60 64 63 62 61 60 60 59 59 58 56
41 40 40 38 38 38 37 38 41 39 40 38 38 36 34 35 36 37 36 41 41 49 43 49 57 58 57 55 53 56 58 57 57 61 64 63 61 60 60 59 58 57 58
42 41 40 41 39 39 38 40 38 37 36 39 37 37 34 32 35 35 36 37 38 41 44 47 51 53 53 58 57 56 55 56 59 60 60 63 62 61 60 59 58 58 58
42 42 42 41 41 41 39 40 41 40 39 37 39 39 38 38 35 33 35 35 36 36 40 44 49 51 54 57 57 54 52 52 54 58 59 60 62 61 61 60 59 58 59
42 41 40 40 40 41 39 37 36 37 39 39 38 38 37 37 37 34 31 32 34 35 37 41 45 49 51 52 52 52 53 51 51 54 58 59 60 61 61 61 59 58 58
38 37 36 36 36 35 34 34 33 33 32 34 36 36 35 32 31 31 31 30 30 31 33 35 38 43 46 49 52 51 51 50 50 52 55 57 58 60 60 61 60 59 59
35 33 33 34 33 34 34 34 33 33 33 33 33 33 34 33 32 30 28 27 25 26 26 29 32 35 38 46 48 49 49 46 48 51 53 54 56 57 59 60 60 60 59
35 34 34 35 34 34 35 36 34 32 33 33 32 33 33 33 32 32 30 29 27 27 27 27 33 35 38 41 45 48 49 47 48 49 50 52 53 54 55 57 58 59 59
32 34 35 34 36 37 37 34 35 33 33 33 33 34 34 33 34 33 33 31 30 27 27 29 29 31 31 40 45 46 49 49 49 48 47 49 50 51 52 54 55 57 58
34 35 37 38 37 35 33 32 31 32 32 32 32 32 32 32 33 34 33 33 33 31 29 30 31 33 34 36 39 43 45 48 47 46 46 47 47 49 49 50 51 53 56
34 36 36 35 33 31 30 30 30 30 30 30 30 29 29 30 30 31 31 30 30 29 28 28 29 31 33 34 35 37 42 45 46 45 44 45 45 45 46 46 47 49 51
33 32 33 31 30 31 30 30 29 28 27 26 27 28 27 25 26 27 28 27 28 28 28 27 28 29 32 33 33 34 33 42 44 45 45 43 44 45 44 44 44 44 45
33 32 30 31 31 31 29 29 27 26 25 26 26 26 25 26 25 26 27 27 28 27 30 30 30 32 33 33 33 33 33 35 43 44 43 41 42 42 44 44 44 44 44
31 30 30 31 31 28 25 25 24 24 25 25 27 28 27 27 27 26 26 26 27 27 27 27 27 27 29 31 33 31 31 31 33 42 43 42 41 42 43 43 43 44 44
30 30 29 27 27 26 21 24 25 26 26 26 27 26 26 27 29 29 26 25 25 25 26 26 26 26 27 29 31 31 31 30 31 34 36 36 36 37 39 42 43 44 44
29 26 25 26 26 22 28 31 29 26 26 26 25 25 25 26 27 29 29 29 27 25 24 24 24 25 26 28 33 33 32 30 27 33 32 34 35 36 36 40 40 42 43
25 24 24 24 24 25 29 29 28 25 25 25 24 25 25 24 27 25 27 28 28 29 27 27 26 24 24 25 27 29 31 32 30 31 32 33 26 32 31 35 37 38 40
22 22 23 24 24 23 28 29 28 26 26 26 26 26 26 26 26 26 26 25 26 26 27 27 28 27 27 27 26 26 27 32 33 34 33 32 24 25 25 29 35 37 39
21 22 23 23 24 26 28 29 28 27 27 27 28 28 28 29 29 30 28 29 27 27 28 31 31 31 31 31 29 27 26 26 26 30 32 31 28 28 24 24 28 34 36
20 24 24 26 27 25 27 27 27 28 27 26 26 26 27 27 29 30 30 29 27 27 27 28 28 29 31 31 33 30 30 27 26 26 28 31 27 27 26 21 24 32 33

GFSMA_sfc_dewp_015.txt.gz
Dewpoint
55 55 55 54 54 54 54 53 53 53 52 53 54 54 54 55 55 56 56 58 58 57 60 61 61 61 62 64 64 64 65 65 65 65 65 65 65 65 64 64 64 64 63
55 55 54 53 53 53 52 51 50 49 48 49 49 50 52 54 54 54 54 54 57 57 57 58 61 62 61 62 63 64 64 65 65 65 64 64 64 64 64 64 64 64 63
52 54 53 52 52 51 50 48 46 41 41 42 40 42 47 49 45 45 46 49 53 57 58 59 56 58 61 62 62 63 63 64 64 64 64 64 64 64 64 64 64 64 63
49 49 48 49 48 50 48 39 39 36 37 38 38 39 38 38 38 40 41 44 48 54 57 55 56 57 59 60 61 61 62 63 64 65 64 64 64 64 64 64 64 64 63
49 47 47 46 44 44 43 39 38 37 36 36 36 37 36 36 36 38 36 40 43 48 50 50 52 55 55 58 61 62 61 61 62 64 64 64 64 63 63 63 63 63 63
47 43 45 46 42 42 41 39 37 39 37 37 36 36 36 36 36 36 36 40 41 43 41 49 45 50 53 56 56 59 62 61 62 62 63 64 64 63 63 63 63 63 63
46 43 43 44 42 41 40 40 38 37 38 38 36 36 36 36 35 35 37 39 40 41 42 43 44 46 49 53 53 51 50 60 61 63 62 63 64 63 63 62 62 62 62
46 43 41 42 43 41 40 40 39 39 38 39 35 35 32 34 33 35 36 37 38 40 40 40 42 43 46 48 50 54 50 49 52 55 56 60 61 62 63 63 62 62 62
46 44 41 40 41 42 40 39 39 38 37 38 37 35 32 30 34 34 34 36 37 37 39 39 39 39 42 46 50 52 50 46 44 49 51 54 58 60 61 63 63 62 62
43 44 42 40 39 41 40 39 39 38 38 36 36 39 36 36 28 25 31 30 29 32 36 37 37 39 39 42 42 45 48 48 47 41 46 50 49 59 59 60 62 62 61
42 42 43 41 41 42 41 38 35 32 34 32 32 31 32 33 34 32 21 21 27 29 32 36 38 38 37 36 36 40 45 47 49 46 42 44 49 48 57 58 59 59 62
39 41 41 41 38 36 35 35 35 34 34 35 35 35 34 30 28 28 28 25 26 28 30 32 33 35 36 37 38 42 42 43 45 49 46 44 48 52 51 57 58 59 59
36 35 36 36 37 38 39 40 40 39 38 37 36 36 36 35 33 32 31 29 28 27 29 32 33 33 34 37 38 40 41 43 44 47 49 50 52 53 54 55 57 57 57
35 37 38 39 40 40 40 41 40 40 41 40 38 37 33 33 33 32 30 29 27 27 27 27 30 32 33 35 36 41 40 43 44 44 48 50 50 51 52 53 54 53 53
37 38 40 41 41 41 42 42 40 38 38 37 35 34 32 32 33 33 33 32 29 26 24 26 28 31 33 36 38 36 36 40 41 41 41 44 48 50 50 50 51 52 51
38 40 40 41 41 41 41 40 37 35 35 34 33 32 32 32 32 33 32 32 31 29 26 27 27 29 30 30 36 37 38 40 40 40 41 43 44 46 47 48 49 49 49
38 39 37 38 39 38 37 35 35 33 32 31 30 30 30 30 30 30 30 30 29 29 26 26 28 28 28 28 30 33 35 37 39 40 40 42 43 43 44 45 44 45 46
36 34 35 36 36 35 34 32 31 30 29 28 28 28 27 25 27 28 29 28 28 27 26 24 25 26 27 28 32 34 33 34 36 37 39 39 41 42 42 42 41 42 43
32 32 32 33 32 32 30 30 29 28 28 27 27 27 27 27 27 27 27 27 27 27 27 27 26 27 28 29 29 30 31 32 32 34 36 37 39 41 42 42 42 41 41
31 30 31 31 31 28 26 26 25 26 26 26 27 26 26 25 25 25 24 24 24 24 24 24 23 24 25 26 27 26 27 31 31 32 34 35 37 39 41 42 41 40 42
35 31 28 26 25 24 22 26 27 26 26 25 25 25 25 25 27 26 24 25 25 25 24 24 23 23 23 23 23 25 26 28 30 32 33 34 35 37 40 41 42 42 41
30 26 24 24 24 22 28 29 28 26 26 25 24 24 25 26 26 27 27 28 28 26 26 25 25 24 23 24 25 25 25 25 25 29 32 33 34 34 35 37 40 40 40
23 22 22 23 23 23 26 27 29 26 26 25 25 25 25 25 26 25 26 27 28 28 28 27 26 25 23 24 25 25 26 25 25 28 29 28 29 32 34 35 37 39 39
21 21 21 23 23 23 26 26 27 26 25 25 26 26 26 26 26 25 25 26 26 25 25 25 26 26 27 26 26 27 26 26 26 26 29 26 28 30 26 29 34 37 38
20 20 22 24 23 23 25 25 25 23 23 24 25 26 25 25 27 28 27 27 26 26 27 30 30 28 29 30 29 28 28 26 24 24 23 26 25 27 28 27 29 33 36
20 24 23 23 23 22 24 25 25 24 24 25 25 25 25 25 27 28 28 27 26 25 26 26 27 29 30 30 30 30 30 26 25 23 23 25 23 24 23 20 20 22 24

GFSMA_sfc_dewp_018.txt.gz
Dewpoint
56 56 55 54 54 53 53 53 53 52 52 51 52 52 53 54 53 53 52 52 52 52 54 57 59 61 61 62 63 64 64 64 64 65 65 65 64 65 65 65 64 64 64
55 54 54 53 53 53 52 51 49 47 47 47 44 45 46 52 46 45 46 46 51 54 56 54 55 56 58 61 62 63 63 63 64 64 65 64 64 64 64 64 64 64 64
54 54 53 52 53 52 50 49 47 42 40 41 39 41 44 45 42 42 43 45 48 53 52 52 48 50 52 56 59 61 62 63 63 64 64 64 64 64 63 64 64 64 64
51 52 52 52 52 51 50 43 39 37 37 38 38 38 38 38 38 40 40 43 45 48 48 48 48 48 49 50 55 60 61 62 63 63 63 64 64 64 63 63 63 64 64
51 48 49 49 49 47 48 41 38 37 36 36 36 37 37 37 37 37 37 40 41 43 44 47 46 47 48 49 53 55 57 60 61 61 62 63 64 64 63 62 62 63 63
48 48 47 47 46 44 44 40 38 39 37 37 35 36 37 37 37 37 36 39 40 41 41 43 44 45 45 45 46 50 52 52 59 59 60 59 62 63 62 63 62 62 63
47 47 45 45 45 42 42 41 39 37 38 39 37 35 36 37 37 37 37 38 39 40 42 42 43 43 42 43 46 49 51 54 49 51 55 56 57 59 61 63 63 62 62
47 46 45 43 44 43 41 40 39 38 38 39 36 35 32 34 34 36 36 37 37 40 39 39 41 40 40 43 44 43 42 42 47 45 46 51 53 55 57 61 63 63 63
43 46 45 44 42 43 42 40 39 38 37 38 38 35 33 31 33 34 35 34 37 35 37 37 36 38 40 42 42 42 41 42 46 48 46 46 49 51 53 57 61 63 63
41 43 45 44 42 42 42 41 40 39 37 37 38 39 35 35 25 22 28 33 28 30 33 35 36 36 38 39 39 39 42 45 43 41 44 46 46 49 52 53 57 60 63
39 40 42 44 43 41 42 41 39 38 36 36 31 32 32 33 33 27 25 25 28 30 31 34 36 38 38 37 37 38 42 43 43 42 43 45 45 46 50 52 53 59 60
40 39 40 41 40 37 36 35 36 36 36 37 37 36 35 33 30 30 29 28 27 28 31 32 34 35 36 37 36 41 42 42 43 44 44 49 49 45 46 52 53 56 60
36 36 37 38 39 39 39 39 39 39 40 40 40 39 39 38 38 36 34 30 28 28 30 33 33 34 34 37 37 40 40 41 42 41 41 40 46 49 47 49 51 51 55
36 38 39 39 39 40 40 41 41 41 42 41 39 38 36 37 37 35 32 30 26 26 26 28 31 32 34 35 37 40 40 40 39 40 41 42 43 45 48 50 50 49 52
38 39 39 39 39 41 41 41 40 39 39 38 38 38 37 36 36 35 34 32 30 24 22 25 27 32 33 34 36 38 37 38 40 41 41 40 41 43 46 49 49 51 51
38 38 38 38 38 39 40 40 39 39 37 37 36 34 33 33 33 33 33 32 32 29 25 26 27 30 31 29 34 36 36 37 36 37 39 40 41 43 43 46 48 50 49
38 38 38 37 37 36 38 38 37 35 33 32 31 30 30 30 30 31 32 31 30 29 27 26 27 28 29 30 29 33 34 34 37 39 39 39 40 41 41 43 43 45 47
36 34 35 35 35 34 34 32 31 30 29 28 28 27 27 25 27 29 29 28 29 28 27 25 26 27 27 28 29 30 32 33 34 34 36 36 36 37 38 40 41 42 43
34 35 34 33 32 32 30 29 28 27 27 27 27 27 27 27 26 26 26 26 26 25 26 25 24 25 27 29 28 29 30 31 32 33 34 35 36 37 38 39 41 41 41
36 36 34 32 30 26 25 25 25 25 26 26 26 26 25 25 24 23 23 23 23 23 24 24 23 23 24 25 27 26 27 29 30 29 31 32 34 35 37 38 40 41 41
35 31 27 26 25 24 21 26 26 26 25 24 26 25 24 25 26 25 24 25 25 25 24 24 24 24 24 25 25 25 25 26 28 30 31 32 34 35 35 38 40 41 40
35 26 24 24 23 22 27 28 29 27 26 26 25 24 24 25 26 27 27 28 28 26 26 26 25 23 23 23 25 25 25 25 23 29 28 29 33 33 35 36 38 40 41
23 22 22 23 23 24 26 26 26 25 26 26 25 25 24 24 26 24 25 25 26 28 27 27 26 25 25 25 24 25 25 24 24 26 29 28 32 32 33 34 35 37 39
21 20 21 23 24 22 24 25 25 25 24 25 25 25 25 25 24 24 25 27 27 26 25 24 25 25 25 26 27 26 26 26 26 26 29 25 28 28 30 32 33 35 37
20 21 23 24 23 22 24 25 25 24 23 23 24 25 26 26 25 26 26 26 26 26 27 28 30 30 30 30 29 28 27 26 24 25 27 26 26 26 28 29 32 32 34
21 24 23 22 22 21 23 25 25 23 22 25 23 24 25 26 27 28 28 28 26 27 28 28 28 28 30 31 31 30 30 26 25 25 25 25 24 25 25 27 30 31 31

GFSMA_sfc_dewp_021.txt.gz
Dewpoint
62 61 61 60 60 59 57 58 58 56 55 53 54 53 52 56 50 44 42 49 52 52 53 55 56 57 58 60 62 62 62 63 63 64 65 65 64 64 64 64 65 65 64
61 59 59 58 58 57 57 58 55 50 48 48 44 45 46 52 43 44 42 44 54 51 51 50 50 51 52 54 58 60 62 62 63 63 64 64 64 64 64 64 64 65 64
59 59 58 58 57 57 58 55 52 49 43 43 42 43 45 46 43 43 43 43 45 50 49 51 47 48 49 51 54 57 59 62 62 63 64 64 64 64 63 63 64 64 64
57 57 56 57 57 57 56 54 51 46 41 40 40 39 40 41 42 42 40 41 42 39 45 46 46 47 47 48 49 52 55 56 59 62 62 63 64 64 64 63 63 64 64
55 55 53 54 57 56 55 54 49 45 41 39 38 40 41 39 40 35 39 41 41 41 39 44 45 45 44 44 45 49 52 53 57 58 61 61 61 63 63 63 63 63 64
52 53 52 53 53 52 52 52 50 45 42 40 34 35 41 40 40 40 39 37 37 42 41 41 40 37 42 38 42 45 48 53 52 50 53 55 57 59 61 63 63 63 63
49 51 50 51 51 50 50 51 49 47 43 43 40 39 40 42 42 39 40 39 37 37 42 40 36 34 30 38 42 42 44 44 44 47 46 48 52 55 56 59 60 62 62
47 47 49 48 49 48 50 49 48 44 43 43 38 38 35 36 38 39 38 37 41 37 38 34 36 31 31 29 34 39 40 42 43 44 46 47 46 50 53 55 57 61 62
45 45 46 47 48 48 47 49 48 46 43 42 43 38 36 33 35 37 40 37 38 38 33 33 29 31 29 31 35 37 39 41 41 41 41 42 47 46 49 53 55 56 59
45 45 45 46 47 46 46 46 46 46 45 42 41 40 41 38 34 33 33 35 35 30 32 30 31 31 31 33 36 39 40 42 40 40 42 44 45 47 47 49 52 54 56
44 44 44 44 45 45 46 46 46 45 43 41 40 40 40 36 35 31 30 30 28 29 30 32 32 32 33 31 29 35 41 43 41 42 42 43 45 50 49 47 50 53 54
42 43 41 43 44 43 43 42 41 41 40 39 38 37 36 34 32 31 30 31 32 34 31 30 31 31 31 31 31 39 41 42 41 40 37 38 40 42 50 48 47 51 54
40 40 41 42 41 41 41 42 42 42 42 41 40 39 39 39 38 36 36 35 33 31 29 30 29 30 29 31 31 39 39 41 41 40 38 39 39 39 42 44 48 49 51
39 41 41 41 42 42 42 43 42 42 40 38 37 37 35 36 37 38 36 35 32 30 28 29 26 28 28 29 33 39 32 39 39 40 40 38 36 37 39 43 44 49 48
39 41 41 41 41 41 41 41 40 39 39 39 38 38 37 38 38 38 36 34 31 26 22 23 22 26 27 28 31 32 31 34 39 39 38 37 37 40 41 42 43 48 49
41 41 41 40 39 39 39 39 39 38 37 37 37 37 37 36 35 34 32 31 28 24 19 19 20 24 27 24 27 31 31 36 35 37 36 38 41 40 39 40 40 42 44
41 39 37 36 36 37 37 37 37 36 35 34 33 32 31 31 28 27 27 26 25 25 23 22 23 26 28 28 27 28 30 30 30 35 38 39 38 38 37 38 38 40 42
37 38 39 38 38 36 34 32 31 30 28 27 26 27 25 22 26 27 27 27 26 26 25 23 23 24 26 27 28 28 25 23 26 30 37 36 36 35 35 36 37 39 41
38 38 37 35 34 33 28 26 25 25 25 25 26 26 26 26 25 24 24 23 23 20 23 22 21 22 23 24 24 26 27 28 25 30 32 34 35 35 35 36 37 38 40
36 35 35 30 28 25 23 23 24 25 25 25 26 25 24 24 23 22 21 21 21 22 22 22 21 21 22 24 25 24 25 28 28 26 28 30 32 33 35 35 36 38 39
36 37 34 27 26 23 20 25 24 25 24 24 24 24 24 24 26 25 23 23 23 23 23 23 23 22 21 22 23 24 24 26 28 29 29 30 31 32 32 34 34 35 37
36 27 25 24 24 20 26 26 26 23 22 22 22 22 22 25 24 25 26 26 26 25 25 25 23 23 21 22 23 25 27 26 25 30 29 29 31 31 31 32 33 37 38
25 24 23 23 23 24 24 24 25 23 23 23 23 22 21 20 25 24 25 26 27 27 26 25 24 23 22 23 23 25 26 26 25 26 29 28 30 30 32 32 34 36 36
23 22 23 23 22 20 23 24 25 25 25 24 23 23 23 25 25 25 25 26 25 26 26 26 26 26 25 25 25 24 26 27 28 26 28 27 31 31 32 32 32 32 34
22 22 22 22 21 22 22 24 26 26 25 25 24 24 23 24 26 28 28 29 27 25 26 29 30 30 30 29 29 29 29 28 27 26 30 28 28 29 30 33 36 32 34
21 23 21 21 23 24 23 25 25 26 26 24 25 24 25 26 27 28 30 28 26 24 23 24 24 26 29 30 30 33 32 28 26 24 26 25 24 24 26 32 33 36 36

GFSMA_sfc_dewp_024.txt.gz
Dewpoint
59 59 58 57 56 55 54 55 54 54 53 51 49 48 46 49 50 43 43 49 52 52 52 52 54 55 57 58 59 61 62 62 63 63 64 64 64 65 65 65 65 65 65
59 57 54 53 52 52 52 53 53 52 48 47 45 44 41 44 43 42 37 45 53 49 50 48 49 50 51 52 55 57 59 61 62 63 63 64 64 64 64 64 64 65 65
57 57 53 51 49 51 56 56 54 53 49 45 42 41 41 45 41 41 40 40 43 48 50 46 46 47 48 50 51 54 56 58 60 62 62 64 63 63 64 64 64 64 65
57 55 51 50 51 52 52 51 51 49 48 45 41 38 39 40 42 42 40 39 38 36 47 45 46 45 45 45 46 49 52 53 55 60 61 62 63 63 63 64 64 63 63
54 54 51 51 53 51 51 51 50 50 47 44 40 39 40 39 40 37 39 41 42 38 37 46 45 44 41 40 42 46 49 52 53 52 56 57 59 60 62 63 63 63 63
50 51 49 51 51 50 49 49 51 49 48 45 38 36 39 40 40 39 39 37 40 41 39 39 39 37 38 34 38 41 44 46 50 50 48 50 52 55 57 59 62 63 64
48 49 47 48 49 50 50 51 49 50 49 47 45 42 40 42 44 41 40 39 38 39 40 40 38 34 35 37 39 37 39 42 43 43 46 48 45 49 52 55 58 59 61
47 45 47 47 48 47 49 50 51 49 48 47 45 42 38 38 40 41 41 39 42 38 36 40 37 36 34 33 36 35 37 38 40 42 41 44 48 47 48 50 53 57 58
44 45 45 46 47 47 46 48 49 49 47 47 47 44 38 36 37 39 43 41 41 40 38 37 36 33 34 33 34 38 39 35 37 39 41 42 43 43 47 48 49 52 55
42 42 44 45 47 46 46 46 45 47 47 45 46 45 46 44 39 38 40 40 40 39 41 37 33 34 34 34 38 40 40 39 38 37 39 42 43 45 46 48 48 49 51
40 39 42 45 45 45 45 47 48 48 46 45 44 44 45 43 43 41 37 37 38 37 36 35 35 35 36 36 34 37 40 41 41 39 41 39 41 43 44 48 49 48 48
36 39 40 44 45 45 44 44 45 44 44 44 42 42 40 38 38 39 37 38 37 35 32 34 36 36 36 36 36 37 39 41 42 40 39 37 37 41 42 44 50 49 48
36 39 42 43 43 44 43 43 43 42 42 41 41 40 39 38 38 37 36 37 36 37 37 36 34 34 32 35 35 36 40 41 41 41 37 37 38 38 38 40 43 46 48
38 42 43 43 42 41 41 42 43 42 40 39 38 38 38 38 38 37 36 36 36 36 35 37 35 33 32 32 35 37 32 37 40 40 39 39 37 36 36 38 41 42 45
38 41 42 41 41 42 41 41 41 41 41 40 39 39 38 38 38 38 38 37 35 30 28 27 27 29 27 29 32 32 32 35 39 39 40 39 36 34 34 38 41 41 42
40 40 41 40 39 40 40 41 40 40 38 38 37 37 36 36 35 34 34 32 30 27 23 21 20 22 24 19 27 29 29 35 35 39 38 38 37 35 38 39 38 37 37
39 37 39 39 39 39 39 38 37 36 34 33 32 31 29 28 27 25 26 25 25 23 21 21 21 23 26 27 26 29 30 30 30 37 36 37 37 39 40 38 37 37 36
40 40 39 39 37 35 36 36 32 30 28 27 27 27 25 19 25 26 24 25 25 24 22 22 22 22 24 26 27 28 25 23 26 28 37 36 37 39 37 37 36 36 36
38 38 37 34 32 31 29 28 26 27 27 26 25 25 25 25 25 25 24 23 22 19 21 21 20 21 22 23 23 25 25 27 23 30 33 35 36 35 34 34 35 36 36
35 34 35 35 36 30 27 25 25 25 25 24 26 26 25 25 25 25 22 22 20 21 21 21 20 20 21 23 23 23 24 25 25 22 27 28 31 32 34 36 36 37 37
34 33 32 29 28 26 20 25 24 24 23 22 23 22 24 25 26 26 23 23 23 21 21 20 23 22 22 22 22 23 23 25 27 27 28 28 29 29 30 33 32 33 34
26 26 26 26 26 21 26 25 25 22 21 21 22 22 22 25 24 28 28 28 27 24 23 24 23 24 23 24 23 24 26 27 27 30 30 31 32 31 29 29 32 35 36
26 25 25 25 25 25 24 24 24 22 23 23 23 22 19 17 25 23 26 27 27 27 27 26 25 24 23 23 24 25 27 27 26 26 29 31 34 31 33 28 33 34 36
25 25 25 24 24 21 24 24 24 24 25 24 23 22 22 24 24 25 26 26 26 25 26 26 28 26 25 26 27 26 27 28 28 28 30 29 33 32 33 33 33 34 34
24 23 23 23 23 23 25 24 25 25 25 24 23 24 25 26 26 28 29 29 26 26 25 28 29 30 29 29 29 30 31 28 30 27 30 28 31 31 31 34 37 33 33
22 24 24 25 25 25 24 24 23 26 27 25 25 24 26 26 28 29 30 30 28 23 24 27 26 28 28 29 30 31 31 29 28 27 27 27 28 27 28 33 33 36 37

GFSMA_sfc_dewp_027.txt.gz
Dewpoint
57 56 55 54 53 52 51 52 51 50 52 52 50 48 47 46 48 46 42 51 49 51 52 53 54 56 56 57 57 59 61 62 62 62 64 64 64 64 64 64 64 65 65
57 55 53 51 50 49 49 50 49 50 50 48 47 47 45 41 41 45 39 45 53 50 51 50 50 51 51 52 55 56 57 59 61 62 62 63 64 64 64 63 64 64 65
55 55 52 51 49 50 54 51 51 50 50 48 46 45 42 44 43 44 40 39 46 50 52 47 48 48 49 50 50 52 55 55 57 61 62 62 63 63 63 64 63 64 64
54 54 51 51 51 53 51 50 49 48 48 47 46 44 42 41 42 44 42 41 39 39 49 49 47 47 46 45 45 48 51 52 56 57 60 61 62 62 63 63 63 64 64
51 52 50 50 53 50 51 51 50 51 49 48 46 45 45 41 43 38 41 44 45 40 39 50 50 47 45 41 41 44 47 51 52 51 52 55 57 59 59 62 63 64 64
49 50 49 50 51 49 50 51 53 50 50 50 44 43 47 44 44 44 41 40 41 45 43 43 43 39 46 40 39 41 44 45 46 48 48 46 48 52 54 57 59 61 63
48 50 47 47 50 48 51 53 53 53 52 52 51 49 48 48 48 44 45 43 42 42 45 43 41 38 37 44 39 40 41 42 43 43 44 47 47 46 48 51 55 56 59
47 45 46 45 45 45 49 51 52 50 51 52 49 49 45 45 45 45 44 45 47 42 41 43 43 43 38 36 41 41 37 38 39 41 43 42 44 47 49 49 50 52 55
45 45 44 44 46 47 45 49 49 49 46 48 51 48 45 42 43 44 47 45 47 46 44 43 43 42 40 37 42 40 43 38 37 39 40 41 42 44 45 46 48 49 51
42 40 40 42 44 45 47 47 43 48 48 45 46 44 47 48 45 44 44 46 45 44 47 44 42 43 39 36 42 43 44 38 37 37 38 39 41 43 44 46 47 49 49
39 37 39 42 44 44 46 47 47 46 44 44 43 45 45 44 45 43 43 44 45 44 43 44 43 41 38 37 37 41 42 42 41 39 38 38 41 41 42 43 44 47 49
37 39 37 41 43 43 44 44 46 45 44 44 43 43 41 40 39 38 38 40 41 47 46 47 44 41 41 41 39 43 42 42 43 40 39 40 39 39 40 42 43 45 49
36 37 39 41 41 43 44 43 43 42 42 41 41 40 39 38 38 37 36 37 35 40 42 43 44 40 37 41 40 40 41 40 41 41 40 40 39 39 39 39 41 43 45
36 39 40 43 44 43 43 44 44 42 41 41 39 39 40 39 39 38 37 37 36 37 37 40 43 44 42 38 39 38 34 41 41 41 41 39 38 39 38 37 38 39 42
36 41 43 41 41 41 41 41 42 42 42 40 41 41 40 39 39 39 38 37 36 31 29 30 32 38 42 40 37 36 35 38 40 40 41 41 39 38 37 36 36 37 40
41 41 40 40 40 39 39 39 40 40 39 40 41 40 38 37 37 36 34 34 35 34 30 27 27 30 30 23 29 30 30 37 37 39 39 40 40 39 37 36 35 38 39
38 39 39 39 38 37 36 37 37 35 34 33 33 33 32 32 29 28 28 31 31 30 27 26 25 27 30 30 27 31 31 32 33 36 35 38 38 38 37 37 38 41 38
38 38 39 38 36 35 32 31 31 29 28 28 30 29 25 19 25 26 25 24 25 24 24 25 23 25 27 29 30 31 25 22 28 30 38 37 37 37 37 37 39 38 37
37 37 37 37 34 31 30 29 28 26 25 25 25 24 23 24 24 24 24 24 23 19 23 22 22 23 25 25 26 28 28 30 23 30 34 37 37 37 37 39 38 37 36
36 37 35 31 29 25 24 24 23 25 24 23 24 24 24 24 24 24 23 23 21 22 22 22 23 23 23 24 25 25 26 28 27 20 26 28 32 34 35 35 35 36 36
28 27 26 25 25 23 19 25 24 24 22 22 23 21 23 26 27 26 21 22 22 22 22 22 22 23 21 21 23 24 25 27 29 29 30 30 31 30 32 34 33 34 34
28 25 24 24 24 19 27 25 25 23 21 21 22 22 22 26 25 29 29 29 27 22 22 24 23 23 23 25 26 26 27 28 29 33 31 32 32 32 30 31 32 34 34
24 24 24 23 23 23 25 24 25 23 22 22 23 23 21 18 25 22 26 28 28 29 28 25 25 24 23 24 24 26 27 28 27 29 30 31 35 34 35 28 33 33 34
24 23 24 23 23 21 27 25 25 23 23 23 24 23 22 23 24 25 25 25 26 26 27 26 27 26 27 28 29 28 29 29 31 30 31 29 34 33 34 35 34 34 34
23 22 22 25 25 26 28 26 24 25 24 23 21 24 25 26 27 28 30 30 26 27 26 30 31 30 29 29 30 29 29 28 30 30 32 29 31 32 33 34 36 34 34
21 23 26 25 26 25 27 25 24 26 26 25 24 23 25 25 27 29 30 28 26 25 27 25 27 26 28 29 30 31 29 26 26 26 29 28 30 28 30 34 34 35 36

GFSMA_sfc_dewp_030.txt.gz
Dewpoint
61 59 58 57 56 55 54 54 53 53 54 54 54 52 50 49 49 49 50 52 52 50 50 55 57 58 59 59 60 61 62 62 63 63 64 64 64 64 64 64 64 63 63
60 58 57 55 54 54 53 53 53 54 53 53 51 51 48 47 45 45 48 49 53 54 53 52 54 55 55 55 56 57 59 60 61 62 63 63 63 64 63 64 64 63 64
57 57 56 55 54 55 55 55 54 53 53 52 51 50 50 48 46 45 47 45 50 53 54 54 52 52 52 54 54 54 57 57 59 61 62 63 63 63 63 63 63 64 64
55 56 56 56 56 56 55 54 54 52 52 51 50 50 48 46 46 46 46 45 44 43 52 55 53 51 51 50 49 49 53 54 58 59 61 61 62 62 63 63 63 64 64
55 54 54 55 56 54 54 54 51 52 51 51 50 49 49 48 46 43 44 45 45 44 44 54 53 53 52 49 48 48 52 53 55 54 55 56 58 59 59 60 62 63 64
53 53 52 53 54 52 52 52 53 53 52 52 49 48 48 49 48 46 45 44 44 44 44 46 48 49 52 49 47 47 50 54 55 52 50 49 49 51 53 56 57 60 62
50 51 50 50 51 50 50 50 50 49 49 52 50 49 48 49 50 47 46 45 43 43 44 44 45 42 44 50 46 46 48 50 50 50 49 48 49 48 47 49 51 55 57
50 48 50 48 48 48 48 48 49 48 48 49 48 47 45 45 46 46 47 44 43 43 42 43 43 41 37 39 42 46 45 46 47 46 46 46 46 48 48 48 49 50 52
49 49 47 46 47 47 47 46 46 46 45 45 47 46 43 41 43 45 45 49 49 48 46 43 43 41 42 38 42 45 47 46 44 43 45 45 44 44 45 45 46 48 50
46 44 44 45 46 47 46 46 44 46 45 43 45 45 45 45 43 42 44 46 50 49 50 51 51 47 41 43 45 44 44 45 43 40 41 41 42 43 44 45 46 47 48
45 43 42 43 45 45 45 46 46 45 45 43 42 41 41 41 41 41 39 40 45 47 48 49 48 49 48 43 41 44 45 42 42 41 38 37 39 42 43 43 43 44 45
43 42 41 42 44 45 44 44 44 43 42 41 40 40 39 38 37 37 36 37 37 41 42 44 46 48 49 46 44 45 44 42 42 43 39 38 39 40 39 40 42 43 43
40 39 42 44 44 43 43 43 43 43 42 41 40 40 39 39 38 37 36 36 36 39 41 41 43 45 46 46 44 44 44 42 43 43 41 39 40 40 40 40 40 40 42
40 43 43 42 42 42 42 42 42 42 42 41 39 39 40 40 40 39 37 36 34 35 35 39 44 45 46 46 45 41 40 41 40 41 42 43 42 40 40 40 39 38 38
40 42 42 41 41 40 41 41 41 40 40 40 40 40 40 40 39 39 39 37 35 31 29 30 35 39 44 44 44 44 39 41 41 41 41 41 42 40 40 39 38 37 37
40 40 40 40 39 39 39 38 38 38 39 38 39 38 38 38 38 39 39 38 36 34 30 30 29 30 28 28 37 38 36 40 41 40 40 40 41 41 40 40 39 37 35
39 39 39 38 38 38 38 37 37 37 37 36 35 34 34 33 32 32 32 34 35 35 33 32 30 28 27 27 27 32 34 32 33 39 38 39 39 39 39 39 39 38 37
38 39 39 39 39 36 35 34 33 32 31 30 29 28 27 23 27 27 28 27 27 27 25 23 25 26 26 27 29 30 27 24 28 33 38 38 38 38 38 38 38 37 37
40 39 38 37 36 35 31 29 27 28 28 26 25 25 25 25 25 27 27 26 26 24 25 24 23 24 25 26 25 26 27 28 27 33 34 38 38 39 38 37 37 37 38
39 37 35 31 31 27 25 26 26 27 27 24 25 25 24 24 24 25 24 25 22 22 22 22 22 23 24 24 25 25 26 28 27 24 28 29 35 37 38 38 37 38 38
32 31 30 28 28 25 23 26 25 25 25 23 23 23 24 27 30 28 22 23 23 23 23 22 22 23 24 24 25 26 25 26 28 30 30 29 29 30 32 37 36 37 37
31 29 27 27 27 21 28 27 26 24 24 23 22 22 24 28 26 29 31 31 29 26 23 22 22 21 22 23 24 25 26 26 25 30 29 28 30 30 30 31 33 35 33
28 27 27 27 27 27 28 27 27 24 23 23 23 23 23 21 26 24 26 27 28 30 28 27 25 24 23 23 23 24 24 25 26 27 28 28 28 30 32 30 34 35 35
27 26 26 28 26 24 30 28 27 24 23 23 23 21 22 24 25 26 25 26 28 27 27 27 30 28 26 27 29 31 32 31 31 30 28 27 28 29 30 32 35 36 35
26 25 26 27 25 25 28 29 27 25 24 23 22 23 24 23 25 27 27 26 26 26 27 29 34 33 32 32 31 28 27 25 23 24 28 30 28 28 29 30 31 34 35
24 30 28 28 28 26 29 29 28 27 23 23 23 23 25 25 28 29 28 27 25 24 24 27 27 26 26 26 28 29 29 27 25 23 25 25 25 27 26 29 31 31 30

GFSMA_sfc_dewp_033.txt.gz
Dewpoint
56 56 55 55 54 53 52 52 51 51 51 51 52 53 52 49 48 47 49 54 54 54 52 52 55 58 60 60 61 62 63 63 63 64 65 64 64 65 65 65 64 64 63
55 55 54 53 53 52 52 51 50 50 50 51 51 50 50 48 46 45 46 48 53 54 54 53 53 56 58 59 59 59 60 62 62 63 64 64 64 64 64 64 64 64 63
54 54 53 53 53 54 52 52 51 52 52 52 51 51 50 49 47 45 43 47 49 54 55 56 55 55 56 56 56 57 58 60 61 61 62 64 63 63 63 63 63 64 64
52 52 53 52 53 53 52 52 52 51 51 51 50 50 50 48 47 45 43 44 46 48 52 55 57 57 55 54 55 54 56 57 59 61 61 62 63 63 63 62 63 63 64
52 51 50 51 51 52 52 52 52 51 51 51 50 49 49 49 48 46 45 44 45 46 44 52 55 55 55 55 53 52 51 55 57 59 59 60 61 61 61 61 62 63 63
50 50 49 49 50 49 49 49 48 48 49 50 48 49 50 50 50 49 47 44 45 44 44 44 51 50 54 55 53 51 51 53 55 56 56 57 57 57 57 57 58 59 61
49 48 48 47 47 47 46 46 47 47 46 48 46 46 47 48 48 49 49 48 46 47 44 44 46 47 48 54 53 50 50 51 52 55 53 52 51 51 51 51 52 54 57
48 46 46 45 45 46 46 46 45 44 45 45 45 44 41 42 44 45 47 47 48 49 48 47 46 45 43 46 48 52 50 50 52 54 52 51 51 51 50 50 49 49 50
44 43 43 44 43 45 45 44 44 45 44 44 45 44 41 40 41 43 43 46 47 49 49 51 51 45 42 41 46 48 49 50 52 50 49 48 48 48 47 46 46 48 49
43 42 41 42 43 44 43 45 45 44 43 41 43 40 41 42 38 36 41 40 41 43 43 46 49 51 51 47 43 45 46 48 50 50 47 47 45 45 44 44 45 46 47
42 41 40 42 44 45 44 43 43 43 43 41 40 39 38 36 37 35 33 35 37 39 41 43 45 48 49 50 49 47 47 45 46 48 46 44 42 42 43 43 43 43 43
41 41 43 44 43 43 43 42 42 42 40 40 39 38 38 36 35 35 35 34 34 37 37 40 42 46 46 48 49 48 47 45 44 45 45 41 39 39 41 40 41 42 42
40 43 42 42 42 41 41 41 41 40 40 39 38 37 38 36 38 37 36 36 33 34 36 39 41 44 44 46 46 46 47 45 42 44 44 42 40 41 39 39 39 40 41
41 41 41 41 40 40 40 39 39 40 38 39 37 40 39 39 40 38 36 35 31 32 32 33 39 41 41 42 43 44 45 44 44 43 42 42 42 41 40 38 39 39 38
39 41 40 39 39 39 39 38 38 37 37 37 37 37 37 37 39 39 39 38 34 29 28 30 30 34 37 40 41 41 42 44 43 42 41 41 42 41 40 38 37 38 37
38 38 39 38 37 37 39 38 37 36 36 37 37 36 36 36 37 38 36 37 37 34 30 30 30 31 32 29 38 40 40 38 40 42 41 41 41 41 41 41 41 39 37
37 37 39 39 39 40 39 37 37 36 36 35 34 32 31 31 31 32 32 31 33 34 31 30 34 33 31 30 29 33 36 36 35 41 40 39 40 40 40 40 40 41 40
39 39 40 39 38 38 37 36 33 31 29 27 26 26 27 24 26 27 28 27 27 27 26 24 25 25 25 26 27 27 27 25 29 35 39 39 39 39 39 39 39 39 39
39 38 38 38 36 35 31 28 28 28 27 26 26 25 25 24 24 25 25 26 27 24 24 23 22 25 25 25 25 25 25 27 25 33 34 37 39 39 39 39 38 38 38
38 37 32 32 30 28 27 26 25 26 25 25 26 25 24 24 24 25 26 25 23 23 22 22 23 23 24 26 27 26 26 27 27 26 31 32 34 35 38 39 39 38 38
31 31 29 28 28 26 24 25 24 24 24 24 25 23 23 25 28 29 26 27 24 22 22 22 22 22 22 22 22 25 24 25 26 28 28 29 29 29 30 34 37 38 38
30 27 27 27 27 23 29 28 26 24 24 23 22 23 24 25 25 27 29 28 28 26 26 25 24 23 22 22 24 24 24 23 23 27 27 26 29 29 30 31 33 36 37
25 26 25 27 26 26 29 28 28 25 23 22 22 23 20 18 24 25 26 28 28 29 28 26 24 24 24 24 24 23 23 23 23 26 25 26 24 27 29 30 34 35 36
23 24 26 26 25 24 29 29 30 25 24 23 23 22 21 23 24 24 23 25 26 27 28 27 27 27 27 27 27 27 28 30 30 29 29 24 26 27 28 29 34 35 36
23 25 27 26 26 26 29 30 29 25 25 25 25 24 22 22 24 26 27 25 25 26 27 28 29 29 30 32 34 32 28 27 24 24 25 26 25 27 25 26 29 33 34
27 28 27 28 29 26 28 29 27 21 21 24 23 22 23 22 25 28 26 26 23 23 23 24 26 26 26 26 28 28 26 25 25 25 26 26 25 25 20 25 29 30 30

GFSMA_sfc_dewp_036.txt.gz
Dewpoint
55 55 54 54 54 52 53 52 52 51 50 50 50 51 52 52 51 49 48 54 58 57 56 54 54 54 56 60 62 61 63 63 64 64 65 64 64 64 65 65 65 64 64
54 54 52 53 52 52 52 51 51 50 51 51 51 52 51 50 49 48 46 47 55 57 56 54 53 53 54 56 61 61 60 62 63 64 64 64 64 63 64 64 64 64 64
54 53 52 52 52 53 52 52 51 52 51 51 50 51 51 51 50 49 46 45 47 55 55 56 57 55 54 55 58 58 58 59 60 62 63 64 63 63 63 63 63 64 64
53 52 51 50 51 52 51 51 51 50 50 50 50 50 50 50 49 48 47 45 45 45 51 55 56 57 58 55 55 56 57 57 59 60 61 63 63 63 63 63 63 63 64
52 50 50 50 50 49 49 48 47 49 48 47 45 46 49 49 49 49 48 46 45 46 46 50 55 55 57 58 54 53 55 54 55 57 60 61 62 63 62 62 62 63 63
50 49 48 47 47 47 46 45 45 45 46 45 44 43 48 49 49 49 49 49 47 46 45 45 45 50 55 56 56 53 54 53 53 55 58 58 60 61 61 61 60 60 61
47 46 45 45 45 45 45 45 45 44 43 45 44 43 44 45 45 45 46 47 47 49 49 49 45 46 48 55 56 53 53 53 52 54 56 56 57 57 56 56 56 57 57
43 41 42 43 43 43 43 43 43 43 44 45 43 43 40 41 42 39 42 43 45 46 44 44 47 49 47 46 49 55 54 53 52 52 55 56 53 52 51 51 50 50 50
42 41 41 42 43 44 43 43 43 42 42 43 42 41 38 37 36 38 35 41 41 41 41 43 43 43 48 49 44 49 52 53 54 54 56 56 53 52 52 51 50 49 49
41 41 42 44 44 44 43 43 43 42 42 41 42 40 40 40 34 31 35 34 37 37 39 41 41 45 48 50 50 49 47 48 52 53 55 55 51 50 49 47 47 46 47
41 43 44 43 43 43 42 41 41 40 41 39 38 37 37 36 36 33 31 32 35 37 38 38 40 43 45 47 49 49 48 47 48 51 54 53 50 49 47 45 45 44 43
42 43 42 42 42 41 41 41 40 39 38 38 38 36 35 34 34 34 32 31 31 34 35 37 38 41 43 44 45 45 48 46 45 47 49 50 49 46 45 45 45 43 42
41 41 41 40 40 40 40 39 39 38 37 36 36 35 36 38 38 37 36 34 32 34 34 35 38 41 42 41 43 43 45 45 45 44 45 46 46 44 44 43 42 41 41
41 41 40 39 39 39 38 38 37 37 37 35 35 36 37 38 38 37 36 35 32 32 30 30 33 37 37 39 41 41 41 42 43 44 44 43 43 44 44 42 41 41 40
40 40 39 39 39 38 38 37 37 36 36 36 35 35 35 35 36 36 36 37 35 29 27 29 30 32 34 36 39 40 41 40 40 41 42 42 41 41 43 41 39 39 38
38 38 38 38 37 39 39 38 37 37 36 36 37 36 35 34 34 35 36 34 36 33 29 30 30 31 33 33 33 38 40 38 39 40 39 42 43 43 41 41 40 40 38
38 38 38 38 38 37 37 36 35 35 34 31 28 27 27 28 27 27 28 28 29 30 28 28 31 33 31 27 27 30 36 38 38 38 38 39 42 42 41 41 41 42 41
38 38 38 37 36 36 35 32 30 29 27 26 26 26 25 22 24 25 26 26 26 26 26 23 25 24 23 24 25 26 25 23 29 35 38 38 38 39 40 40 40 40 40
37 37 37 35 32 31 28 27 27 26 25 25 25 25 24 24 23 23 24 25 26 25 25 23 22 24 24 25 25 26 26 27 26 31 33 35 38 38 40 40 39 39 39
36 35 32 31 29 27 25 25 25 24 24 24 25 25 24 24 23 24 25 26 26 24 23 22 22 23 24 24 24 24 23 26 25 25 29 30 32 33 33 35 38 39 39
33 32 27 28 27 25 24 25 24 24 23 23 24 23 23 24 23 24 24 27 27 25 25 25 23 22 22 21 21 21 22 23 25 27 27 27 28 29 30 32 33 37 38
34 27 26 27 26 23 29 27 27 24 23 23 22 22 23 23 21 24 26 27 27 25 24 23 23 23 23 22 23 23 23 22 20 26 26 25 27 27 28 31 33 34 36
29 25 27 27 25 25 29 29 30 27 24 23 23 22 22 20 23 23 25 26 26 27 27 27 26 25 23 24 24 23 23 22 22 24 25 24 23 25 27 28 33 34 35
28 25 27 26 25 24 29 30 30 27 25 25 25 24 23 22 23 22 23 25 26 26 26 27 27 27 27 26 26 27 26 24 27 29 27 24 22 24 25 28 32 33 34
25 27 27 26 25 26 29 29 27 24 24 23 24 23 21 21 23 24 26 25 24 24 24 25 25 26 28 31 29 28 28 27 25 24 24 24 24 22 23 26 27 31 34
28 27 27 27 27 25 25 25 24 22 15 21 22 21 21 20 23 25 25 24 23 23 23 23 23 25 26 26 27 26 25 23 22 22 25 24 23 23 20 23 27 28 29

GFSMA_sfc_dewp_039.txt.gz
Dewpoint
56 57 57 55 53 52 51 51 51 50 50 50 51 50 50 51 51 51 50 54 56 59 57 56 56 56 56 59 62 61 61 62 63 64 65 65 64 64 64 64 64 64 64
55 54 53 53 52 52 52 51 51 51 51 51 50 51 51 51 51 50 49 48 53 56 57 56 55 56 55 57 59 62 61 61 61 62 64 64 64 63 63 64 64 64 64
54 53 52 52 52 52 51 50 49 48 48 48 48 49 50 50 50 50 49 48 48 51 55 56 55 58 57 56 58 60 60 59 59 60 62 64 64 63 63 63 63 64 64
53 52 50 50 50 49 48 47 47 46 46 46 45 46 46 47 49 48 49 48 46 46 48 52 54 56 58 57 54 55 57 59 58 59 61 62 63 63 63 62 63 63 63
51 50 48 48 47 47 46 46 45 45 44 43 44 43 43 46 47 48 48 48 48 47 47 49 51 53 54 56 56 55 55 56 57 57 58 60 61 62 63 62 62 63 63
48 47 45 45 46 46 45 44 44 43 43 44 44 43 44 45 46 46 44 45 47 48 47 47 48 48 50 51 53 55 55 55 55 55 55 57 59 60 62 61 62 62 62
43 43 43 43 43 42 42 43 43 42 42 44 43 41 43 42 43 39 41 43 46 43 41 41 41 43 46 50 51 52 55 56 55 55 56 57 59 59 60 59 59 59 59
41 40 41 42 43 43 43 43 43 43 43 43 41 40 38 37 39 35 38 39 40 42 39 38 40 39 42 48 49 52 51 53 55 56 56 57 58 58 57 57 55 54 54
41 41 42 43 43 43 43 42 41 40 40 41 40 39 34 33 34 35 33 37 37 37 38 38 37 40 44 46 49 49 50 50 50 53 56 55 57 56 54 53 52 52 51
41 43 43 43 43 42 41 41 42 40 40 39 39 39 38 37 32 32 33 34 35 35 37 38 38 41 44 45 45 46 47 48 49 50 50 54 56 55 54 53 52 51 49
43 43 43 42 41 41 41 40 39 39 39 38 37 36 35 35 34 33 30 30 32 35 36 36 37 39 42 43 44 44 46 45 47 48 50 49 52 55 54 53 50 49 48
42 41 41 40 40 40 39 39 38 37 37 37 37 35 35 32 32 33 32 31 32 32 34 35 35 38 39 40 39 43 44 43 45 46 48 49 50 52 53 50 48 48 46
40 40 40 39 39 39 38 38 37 36 36 35 34 35 35 35 37 37 36 34 33 32 33 34 34 35 39 37 37 41 42 41 41 42 45 47 47 49 52 48 47 46 45
40 40 39 39 38 38 37 37 36 36 36 35 34 35 36 37 36 37 35 35 31 31 29 29 32 34 35 35 37 39 40 40 41 40 41 44 44 44 47 45 45 43 44
40 39 39 38 38 38 38 37 35 35 35 35 35 35 36 35 36 35 35 36 32 27 25 27 29 32 33 35 36 35 38 40 38 39 40 40 43 41 43 44 44 40 41
37 37 37 37 37 37 37 37 35 34 34 34 34 33 31 31 30 30 30 31 30 28 24 28 29 31 32 32 29 30 35 39 39 39 37 38 40 42 42 41 41 41 41
37 37 37 38 37 35 35 34 33 30 28 26 26 26 26 26 26 26 26 27 26 27 24 24 29 30 30 24 24 27 28 30 37 39 38 37 37 39 41 42 41 40 38
36 36 36 37 36 33 31 28 28 27 25 24 24 25 25 22 24 24 24 24 24 25 25 23 25 25 23 22 24 25 25 26 28 32 35 39 38 38 39 41 40 40 41
36 36 37 37 33 30 28 26 26 24 24 24 24 24 23 23 23 23 23 24 25 26 26 25 24 23 24 25 24 24 24 25 25 26 30 32 33 37 39 38 38 39 39
37 36 35 33 30 27 26 25 24 24 24 24 25 24 23 23 23 23 23 26 26 27 26 25 24 23 24 24 24 23 21 24 24 23 26 30 31 32 34 35 39 39 39
35 35 36 31 29 26 24 25 24 24 24 23 24 23 23 24 25 23 20 22 23 25 24 24 24 24 23 22 22 21 21 22 23 25 24 26 27 29 29 31 32 35 39
35 37 32 29 28 23 29 29 28 25 25 24 23 23 23 25 23 23 23 24 24 23 23 23 22 22 23 23 22 22 22 21 20 24 24 23 26 26 27 29 31 33 34
34 32 28 28 25 25 29 29 30 28 26 25 24 24 23 21 22 21 23 24 24 26 26 25 24 23 23 24 23 22 22 22 23 24 24 24 22 24 27 27 31 33 34
30 30 26 25 24 24 29 29 28 25 24 24 23 23 23 21 22 21 23 24 24 25 25 25 25 26 27 27 25 25 25 25 24 25 28 25 23 23 25 26 29 30 32
32 26 26 25 25 25 26 26 25 22 22 21 21 21 20 19 21 24 24 23 23 23 24 26 26 25 26 26 29 29 27 25 22 23 24 24 23 21 21 24 26 29 30
27 27 26 26 26 22 23 23 22 20 13 20 20 19 20 21 23 27 25 24 22 22 24 24 24 24 25 25 26 25 23 23 22 19 24 23 23 23 18 21 23 24 25